K9APR Weather Reports


Display with metric or nautical units.
time (UTC)temp
F
wind
direction
speed
MPH
gust
MPH
rain 1hr
in
rain 24hr
in
rain mn
in
humidity
%
barometer
mb
20260508163525 62 259 2.0 3.0 0.00 0.00 0.00 58 1013.2
20260508162624 62 253 6.0 8.0 0.00 0.00 0.00 58 1013.4
20260508161723 63 224 6.0 10.0 0.00 0.00 0.00 57 1013.6
20260508160823 63 267 7.0 10.0 0.00 0.00 0.00 59 1013.5
20260508155924 63 239 3.0 8.0 0.00 0.00 0.00 61 1013.6
20260508155024 62 246 6.0 12.0 0.00 0.00 0.00 61 1013.6
20260508154124 63 238 6.0 10.0 0.00 0.00 0.00 59 1013.7
20260508153223 63 253 7.0 12.0 0.00 0.00 0.00 58 1013.7
20260508151423 61 223 7.0 13.0 0.00 0.00 0.00 60 1013.7
20260508150524 61 247 8.0 12.0 0.00 0.00 0.00 59 1013.8
20260508145623 60 251 8.0 12.0 0.00 0.00 0.00 59 1013.9
20260508144723 60 265 3.0 7.0 0.00 0.00 0.00 61 1014.0
20260508143824 59 252 5.0 13.0 0.00 0.00 0.00 62 1014.1
20260508142923 59 269 6.0 6.0 0.00 0.00 0.00 61 1014.2
20260508142027 58 269 5.0 7.0 0.00 0.00 0.00 62 1014.3
20260508141127 57 270 6.0 6.0 0.00 0.00 0.00 62 1014.4
20260508140224 56 251 8.0 12.0 0.00 0.00 0.00 61 1014.5
20260508135324 56 256 5.0 7.0 0.00 0.00 0.00 63 1014.5
20260508134423 55 251 7.0 12.0 0.00 0.00 0.00 62 1014.4
20260508133523 55 254 3.0 8.0 0.00 0.00 0.00 65 1014.5
20260508132623 54 281 3.0 8.0 0.00 0.00 0.00 68 1014.6
20260508131723 53 279 3.0 3.0 0.00 0.00 0.00 68 1014.7
20260508130827 52 281 2.0 6.0 0.00 0.00 0.00 68 1014.6
20260508125923 51 273 3.0 3.0 0.00 0.00 0.00 70 1014.6
20260508125117 51 262 2.0 3.0 0.00 0.00 0.00 72 1014.7
20260508124126 50 269 2.0 3.0 0.00 0.00 0.00 72 1014.6
20260508123223 50 231 3.0 6.0 0.00 0.00 0.00 72 1014.5
20260508122323 49 274 2.0 5.0 0.00 0.00 0.00 73 1014.6
20260508121423 48 223 3.0 3.0 0.00 0.00 0.00 73 1014.4
20260508120524 48 259 1.0 3.0 0.00 0.00 0.00 73 1014.5
20260508115624 47 304 0.0 1.0 0.00 0.00 0.00 75 1014.5
20260508114724 47 150 1.0 1.0 0.00 0.00 0.00 73 1014.5
20260508113856 48 254 2.0 3.0 0.00 0.00 0.00 71 1014.5
20260508113824 48 254 2.0 3.0 0.00 0.00 0.00 71 1014.5
20260508112926 47 188 2.0 3.0 0.00 0.00 0.00 71 1014.2
20260508111124 47 138 1.0 5.0 0.00 0.00 0.00 71 1014.1
20260508110224 48 217 3.0 3.0 0.00 0.00 0.00 71 1014.3
20260508105323 48 172 2.0 3.0 0.00 0.00 0.00 71 1014.2
20260508104424 47 165 1.0 3.0 0.00 0.00 0.00 71 1014.0
20260508103524 48 145 1.0 2.0 0.00 0.00 0.00 70 1013.9
20260508102623 48 182 2.0 3.0 0.00 0.00 0.00 70 1014.0
20260508101724 48 186 2.0 5.0 0.00 0.00 0.00 70 1014.1
20260508100826 48 189 1.0 3.0 0.00 0.00 0.00 70 1014.0
20260508095925 49 224 2.0 5.0 0.00 0.00 0.00 69 1014.0
20260508095024 49 235 2.0 5.0 0.00 0.00 0.00 68 1013.9
20260508094124 49 212 2.0 6.0 0.00 0.00 0.00 67 1013.8
20260508093224 49 234 3.0 5.0 0.00 0.00 0.00 68 1014.0
20260508092324 49 232 2.0 5.0 0.00 0.00 0.00 68 1014.2
20260508091424 49 229 1.0 3.0 0.00 0.00 0.00 68 1014.1
20260508090523 49 251 1.0 3.0 0.00 0.00 0.00 68 1014.2
20260508085624 49 241 1.0 2.0 0.00 0.00 0.00 68 1014.3
20260508084723 48 264 1.0 2.0 0.00 0.00 0.00 69 1014.3
20260508083823 48 262 1.0 3.0 0.00 0.00 0.00 69 1014.3
20260508082923 48 243 2.0 5.0 0.00 0.00 0.00 69 1014.4
20260508082023 48 262 1.0 3.0 0.00 0.00 0.00 70 1014.4
20260508081124 48 256 0.0 2.0 0.00 0.00 0.00 71 1014.3
20260508080225 49 291 1.0 3.0 0.00 0.00 0.00 71 1014.4
20260508075323 49 243 1.0 3.0 0.00 0.00 0.00 68 1014.2
20260508074424 49 241 3.0 5.0 0.00 0.00 0.00 69 1014.3
20260508073523 48 264 1.0 3.0 0.00 0.00 0.00 71 1014.4
20260508072624 49 259 1.0 3.0 0.00 0.00 0.00 69 1014.4
20260508071727 48 245 2.0 3.0 0.00 0.00 0.00 68 1014.5
20260508070824 48 251 1.0 2.0 0.00 0.00 0.00 69 1014.5
20260508065924 48 243 1.0 2.0 0.00 0.00 0.00 68 1014.6
20260508065023 48 217 0.0 1.0 0.00 0.00 0.00 68 1014.6
20260508064123 48 203 2.0 5.0 0.00 0.00 0.00 67 1014.8
20260508063224 48 197 1.0 3.0 0.00 0.00 0.00 67 1014.8
20260508062324 48 233 2.0 3.0 0.00 0.00 0.00 67 1014.8
20260508061426 48 234 2.0 3.0 0.00 0.00 0.00 68 1014.8
20260508060523 48 209 2.0 3.0 0.00 0.00 0.00 67 1014.8
20260508055701 49 219 1.0 5.0 0.00 0.00 0.00 67 1014.8
20260508055625 49 219 1.0 5.0 0.00 0.00 0.00 67 1014.8
20260508054724 48 218 1.0 3.0 0.00 0.00 0.00 67 1014.8
20260508053824 49 227 1.0 2.0 0.00 0.00 0.00 67 1014.9
20260508052923 49 217 1.0 3.0 0.00 0.00 0.00 67 1014.9
20260508052023 49 219 0.0 2.0 0.00 0.00 0.00 66 1015.0
20260508051124 49 229 3.0 5.0 0.00 0.00 0.00 66 1015.1
20260508050223 49 212 1.0 2.0 0.00 0.00 0.00 66 1015.0
20260508045323 49 210 2.0 3.0 0.00 0.00 0.00 66 1015.0
20260508044424 50 205 1.0 2.0 0.00 0.00 0.00 66 1015.1
20260508043523 50 189 1.0 3.0 0.00 0.00 0.00 66 1015.1
20260508042623 50 207 2.0 3.0 0.00 0.00 0.00 66 1015.1
20260508041724 50 160 2.0 3.0 0.00 0.00 0.00 66 1015.0
20260508040854 50 174 1.0 2.0 0.00 0.00 0.00 66 1015.0
20260508040822 50 174 1.0 2.0 0.00 0.00 0.00 66 1015.0
20260508035924 50 229 1.0 2.0 0.00 0.00 0.00 67 1015.0
20260508035026 51 158 1.0 1.0 0.00 0.00 0.00 66 1015.0
20260508034123 50 160 1.0 2.0 0.00 0.00 0.00 65 1014.9
20260508033223 50 152 1.0 1.0 0.00 0.00 0.00 66 1015.1
20260508032323 50 138 1.0 2.0 0.00 0.00 0.00 67 1015.0
20260508031424 50 170 2.0 3.0 0.00 0.00 0.00 66 1015.0
20260508030523 50 160 0.0 0.0 0.00 0.00 0.00 65 1015.0
20260508025630 50 151 1.0 3.0 0.00 0.00 0.00 67 1015.1
20260508024724 49 165 1.0 3.0 0.00 0.00 0.00 68 1015.0
20260508023823 49 149 0.0 1.0 0.00 0.00 0.00 68 1014.9
20260508022923 50 149 0.0 0.0 0.00 0.00 0.00 67 1014.8
20260508022023 50 150 0.0 0.0 0.00 0.00 0.00 67 1014.9
20260508021124 50 150 0.0 0.0 0.00 0.00 0.00 67 1014.9
20260508020223 50 235 0.0 1.0 0.00 0.00 0.00 66 1015.0
20260508015323 51 234 0.0 1.0 0.00 0.00 0.00 65 1014.8
20260508014424 51 234 0.0 0.0 0.00 0.00 0.00 64 1014.7
20260508013523 51 234 0.0 1.0 0.00 0.00 0.00 62 1014.9
20260508012623 52 250 0.0 1.0 0.00 0.00 0.00 62 1014.6
20260508011723 53 237 0.0 1.0 0.00 0.00 0.00 62 1014.5
20260508010823 53 240 0.0 1.0 0.00 0.00 0.00 57 1014.5
20260508005924 54 236 1.0 3.0 0.00 0.00 0.00 58 1014.5
20260508005023 54 286 1.0 1.0 0.00 0.00 0.00 58 1014.7
20260508004124 54 284 5.0 6.0 0.00 0.00 0.00 56 1014.8
20260508003222 55 284 5.0 7.0 0.00 0.00 0.00 54 1014.9
20260508002323 55 298 3.0 5.0 0.00 0.00 0.00 55 1014.8
20260508001423 55 300 6.0 6.0 0.00 0.00 0.00 50 1014.8
20260508000523 56 294 5.0 7.0 0.00 0.00 0.00 51 1014.7
20260507235626 56 304 5.0 6.0 0.00 0.00 0.00 55 1014.7
20260507234724 56 285 2.0 3.0 0.00 0.00 0.00 55 1014.5
20260507233823 56 286 2.0 3.0 0.00 0.00 0.00 51 1014.4
20260507232922 56 251 2.0 3.0 0.00 0.00 0.00 50 1014.3
20260507232023 57 282 2.0 3.0 0.00 0.00 0.00 49 1014.3
20260507231124 58 271 5.0 6.0 0.00 0.00 0.00 47 1014.3
20260507230222 58 268 2.0 5.0 0.00 0.00 0.00 45 1014.3
20260507225324 57 289 5.0 6.0 0.00 0.00 0.00 47 1014.5
20260507224423 58 257 2.0 3.0 0.00 0.00 0.00 44 1014.5
20260507223524 59 273 3.0 6.0 0.00 0.00 0.00 45 1014.5
20260507222624 59 294 5.0 7.0 0.00 0.00 0.00 44 1014.4
20260507221724 59 194 3.0 6.0 0.00 0.00 0.00 45 1014.5
20260507220823 58 246 5.0 8.0 0.00 0.00 0.00 45 1014.6
20260507215923 59 274 1.0 3.0 0.00 0.00 0.00 42 1014.6
20260507215023 59 255 3.0 6.0 0.00 0.00 0.00 43 1014.6
20260507214122 59 268 2.0 3.0 0.00 0.00 0.00 40 1014.6
20260507213223 59 275 1.0 6.0 0.00 0.00 0.00 43 1014.6
20260507212324 59 251 3.0 68.0 0.00 0.00 0.00 44 1014.8
20260507212322 59 251 3.0 8.0 0.00 0.00 0.00 44 1014.8
20260507211423 59 305 7.0 9.0 0.00 0.00 0.00 43 1014.7
20260507210524 58 262 2.0 3.0 0.00 0.00 0.00 42 1014.9
20260507205624 59 292 7.0 9.0 0.00 0.00 0.00 45 1015.0
20260507204723 58 295 8.0 10.0 0.00 0.00 0.00 46 1015.0
20260507203822 59 297 6.0 7.0 0.00 0.00 0.00 42 1015.1
20260507202922 58 296 2.0 5.0 0.00 0.00 0.00 46 1015.1
20260507202023 58 298 6.0 8.0 0.00 0.00 0.00 44 1015.1
20260507200222 58 288 8.0 13.0 0.00 0.00 0.00 45 1015.3
20260507195322 58 306 8.0 8.0 0.00 0.00 0.00 43 1015.3
20260507194425 58 305 3.0 7.0 0.00 0.00 0.00 45 1015.4
20260507193524 58 304 7.0 8.0 0.00 0.00 0.00 45 1015.3
20260507192624 58 315 2.0 3.0 0.00 0.00 0.00 47 1015.3
20260507191724 58 311 6.0 7.0 0.00 0.00 0.00 49 1015.5
20260507190822 58 305 9.0 9.0 0.00 0.00 0.00 43 1015.6
20260507185923 58 304 5.0 6.0 0.00 0.00 0.00 47 1015.5
20260507185023 58 308 3.0 6.0 0.00 0.00 0.00 45 1015.4
20260507184122 58 298 8.0 13.0 0.00 0.00 0.00 53 1015.5
20260507183224 57 287 5.0 8.0 0.00 0.00 0.00 50 1015.5
20260507182323 56 297 5.0 12.0 0.00 0.00 0.00 51 1015.7
20260507181422 56 302 5.0 6.0 0.00 0.00 0.00 45 1015.8
20260507180524 56 302 3.0 6.0 0.00 0.00 0.00 47 1015.8
20260507175624 57 297 7.0 10.0 0.00 0.00 0.00 51 1015.8
20260507174722 56 300 5.0 6.0 0.00 0.00 0.00 52 1015.9
20260507173823 56 301 6.0 9.0 0.00 0.00 0.00 52 1016.0
20260507172925 56 311 3.0 5.0 0.00 0.00 0.00 50 1016.1
20260507172023 55 301 5.0 8.0 0.00 0.00 0.00 47 1016.2
20260507171125 55 308 7.0 9.0 0.00 0.00 0.00 50 1016.4
20260507170223 55 295 8.0 12.0 0.00 0.00 0.00 49 1016.3
20260507165322 55 298 8.0 12.0 0.00 0.00 0.00 54 1016.4
20260507164423 54 305 5.0 6.0 0.00 0.00 0.00 48 1016.6